Regional Weather Roundup
Issued by NWS

Home | Current Version | Previous Version | Graphics & Text | Print | Product List | Glossary On
Versions: 1 2 3 4 5 6 7 8 9 10 11 12 13 14 15 16 17 18 19 20 21 22 23 24 25 26 27 28 29 30 31 32 33 34 35 36 37 38 39 40 41 42 43 44 45 46 47 48 49 50
000
ASUS45 KBOI 240810
RWRID
WEATHER ROUNDUP FOR IDAHO
NATIONAL WEATHER SERVICE BOISE ID
200 AM MDT THU JUL 24 2014

NOTE: "FAIR" INDICATES FEW OR NO CLOUDS BELOW 12000 FEET
WITH NO SIGNIFICANT WEATHER AND/OR OBSTRUCTIONS TO VISIBILITY

IDZ012-014-240900-
SOUTHWEST IDAHO


CITY           SKY/WX    TMP DP  RH WIND       PRES   REMARKS
BOISE          CLEAR     68  48  48 NW9       30.01R
CALDWELL       CLEAR     66  45  45 NW13      30.04R
MOUNTAIN HOME  CLEAR     71  45  39 NW18      29.99R
$$

IDZ016-017-240900-
SOUTHCENTRAL IDAHO


CITY           SKY/WX    TMP DP  RH WIND       PRES   REMARKS
BURLEY         PTCLDY    65  46  50 S6        30.00S
JEROME         CLEAR     69  40  34 SW7       30.01R
TWIN FALLS     CLEAR     73  32  22 SW14      30.03R
$$

IDZ019>023-240900-
SOUTHEAST IDAHO


CITY           SKY/WX    TMP DP  RH WIND       PRES   REMARKS
IDAHO FALLS    PTCLDY    70  41  34 S8        30.00R
POCATELLO      CLEAR     72  38  29 S10       30.01R
REXBURG        PTCLDY    69  41  36 S10       29.99S
$$

IDZ006-010-011-018-031-032-240900-
CENTRAL IDAHO MOUNTAINS


CITY           SKY/WX    TMP DP  RH WIND       PRES   REMARKS
MCCALL         PTCLDY    54  45  71 W6        30.09R
HAILEY         CLEAR     61  41  48 NW8       30.08S
STANLEY          N/A     50  35  56 S5        30.14S
SALMON         CLEAR     61  46  59 CALM      29.91F
CHALLIS        CLEAR     64  40  41 CALM      30.00S
$$

IDZ002-004-006-007-026-240900-
NORTHERN IDAHO


CITY           SKY/WX    TMP DP  RH WIND       PRES   REMARKS
LEWISTON       LGT RAIN  64  44  48 NW12      30.07R
LOWELL           N/A     68  46  45 CALM      30.08F
COEUR D`ALENE  CLOUDY    59  52  77 CALM      30.03S
MULLAN PASS    LGT RAIN  43  42  97 VRB6      30.14S
$$


USA.gov is the U.S. government's official web portal to all federal, state and local government web resources and services.